Beaufort, NC

3:27 AM EDT on October 19, 2017 (GMT -0400)
Smith

Weather History for KMRH - September, 2013

Change the Weather History Date:

Sunday, September 22, 2013

  Actual Average Record
Temperature  
Mean Temperature 72 °F -  
Max Temperature 78 °F 83 °F 91 °F (1957)
Min Temperature 68 °F 65 °F 54 °F (1967)
Cooling Degree Days 8    
Growing Degree Days 22 (Base 50)    
Moisture  
Dew Point 71 °F    
Average Humidity 96    
Maximum Humidity 100    
Minimum Humidity 79    
Precipitation  
Precipitation 2.40 in - - ()
Sea Level Pressure  
Sea Level Pressure 29.72 in    
Wind  
Wind Speed 10 mph (SSW)    
Max Wind Speed 25 mph    
Max Gust Speed 31 mph    
Visibility 5 miles    
Events Fog , Rain    
Averages and records for this station are not official NWS values.
T = Trace of Precipitation, MM = Missing Value Source: NWS Daily Summary

Daily Weather History Graph

Daily Weather History Graph

Search for Another Location

Airport or City:

Trip Planner

Search our weather history database for the weather conditions in past years. The results will help you decide how hot, cold, wet, or windy it might be!

Date:

Astronomy

Sep. 22, 2013 Rise Set
Actual Time 6:54 AM EDT 7:03 PM EDT
Civil Twilight 6:29 AM EDT 7:28 PM EDT
Nautical Twilight 6:00 AM EDT 7:57 PM EDT
Astronomical Twilight 5:30 AM EDT 8:27 PM EDT
Moon 9:01 PM EDT (9/22) 10:03 AM EDT (9/22)
Length of Visible Light 12h 58m
Length of Day
12h 08m
Waning Gibbous, 89% of the Moon is Illuminated
Sep 22
Waning Gibbous
Sep 26
Last Quarter
Oct 4
New
Oct 11
First Quarter
Oct 18
Full

Hourly Weather History & Observations

Time (EDT) Temp. Dew Point Humidity Pressure Visibility Wind Dir Wind Speed Gust Speed Precip Events Conditions
12:58 AM 77.0 °F 70.0 °F 79% 29.75 in 10.0 mi SSW 11.5 mph - N/A   Scattered Clouds
1:58 AM 77.0 °F 71.1 °F 82% 29.75 in 10.0 mi SSW 11.5 mph - N/A   Mostly Cloudy
2:16 AM 75.2 °F 71.6 °F 89% 29.75 in 10.0 mi SSW 9.2 mph - 0.00 in Rain Light Rain
2:25 AM 75.2 °F 71.6 °F 89% 29.75 in 10.0 mi SSW 8.1 mph - 0.00 in Rain Light Rain
2:58 AM 73.9 °F 71.1 °F 91% 29.75 in 4.0 mi SSW 8.1 mph - 0.04 in Rain Light Rain
3:39 AM 69.8 °F 69.8 °F 100% 29.73 in 5.0 mi SSE 12.7 mph 19.6 mph 0.04 in Rain Light Rain
3:58 AM 72.0 °F 71.1 °F 97% 29.73 in 4.0 mi South 4.6 mph - 0.06 in Rain Rain
4:27 AM 71.6 °F 71.6 °F 100% 29.72 in 7.0 mi SW 3.5 mph - 0.01 in Rain Light Rain
4:58 AM 72.0 °F 71.1 °F 97% 29.71 in 6.0 mi SSE 3.5 mph - 0.03 in Rain Light Rain
5:58 AM 72.0 °F 71.1 °F 97% 29.71 in 8.0 mi ESE 3.5 mph - 0.01 in Rain Light Rain
6:18 AM 71.6 °F 71.6 °F 100% 29.71 in 1.8 mi South 5.8 mph - 0.11 in Rain Heavy Rain
6:23 AM 71.6 °F 71.6 °F 100% 29.72 in 1.0 mi South 8.1 mph - 0.24 in Rain Heavy Rain
6:30 AM 69.8 °F 68.0 °F 94% 29.71 in 0.5 mi Calm Calm - 0.49 in Fog , Rain Heavy Rain
6:46 AM 69.8 °F 69.8 °F 100% 29.72 in 1.2 mi Variable 3.5 mph - 0.70 in Rain Heavy Rain
6:58 AM 70.0 °F 69.1 °F 97% 29.72 in 2.0 mi South 9.2 mph - 0.81 in Rain Heavy Rain
7:08 AM 69.8 °F 69.8 °F 100% 29.72 in 1.5 mi South 6.9 mph - 0.10 in Rain Heavy Rain
7:27 AM 71.6 °F 69.8 °F 94% 29.73 in 1.0 mi SSW 18.4 mph 23.0 mph 0.40 in Rain Heavy Rain
7:33 AM 71.6 °F 71.6 °F 100% 29.73 in 1.2 mi SSW 20.7 mph 25.3 mph 0.45 in Rain Heavy Rain
7:40 AM 69.8 °F 69.8 °F 100% 29.73 in 1.5 mi SSW 12.7 mph 25.3 mph 0.50 in Rain Heavy Rain
7:49 AM 69.8 °F 69.8 °F 100% 29.72 in 1.2 mi South 8.1 mph - 0.59 in Rain Heavy Rain
7:58 AM 69.1 °F 69.1 °F 100% 29.72 in 1.2 mi SSE 9.2 mph - 0.67 in Rain Heavy Rain
8:05 AM 69.8 °F 69.8 °F 100% 29.72 in 3.0 mi SSE 6.9 mph - 0.01 in Rain Light Rain
8:17 AM 71.6 °F 69.8 °F 94% 29.71 in 2.0 mi South 8.1 mph - 0.02 in Rain Light Rain
8:23 AM 71.6 °F 71.6 °F 100% 29.71 in 1.8 mi South 11.5 mph - 0.03 in Rain Rain
8:25 AM 71.6 °F 71.6 °F 100% 29.71 in 2.0 mi South 9.2 mph - 0.03 in Rain Light Rain
8:30 AM 71.6 °F 71.6 °F 100% 29.71 in 4.0 mi South 10.4 mph - 0.03 in Rain Light Rain
8:40 AM 71.6 °F 71.6 °F 100% 29.71 in 5.0 mi South 13.8 mph 19.6 mph 0.03 in Rain Light Rain
8:58 AM 73.0 °F 73.0 °F 100% 29.70 in 8.0 mi South 12.7 mph - 0.03 in   Overcast
9:07 AM 73.4 °F 73.4 °F 100% 29.71 in 2.5 mi South 25.3 mph 31.1 mph 0.03 in Rain Rain
9:11 AM 71.6 °F 71.6 °F 100% 29.71 in 1.0 mi SSW 23.0 mph 31.1 mph 0.11 in Rain Heavy Rain
9:13 AM 71.6 °F 71.6 °F 100% 29.71 in 0.5 mi South 21.9 mph 31.1 mph 0.18 in Fog , Rain Heavy Rain
9:20 AM 71.6 °F 71.6 °F 100% 29.71 in 0.8 mi South 15.0 mph 27.6 mph 0.19 in Rain Light Rain
9:22 AM 71.6 °F 71.6 °F 100% 29.71 in 1.2 mi South 16.1 mph 27.6 mph 0.19 in Rain Light Rain
9:29 AM 71.6 °F 71.6 °F 100% 29.71 in 1.0 mi Variable 5.8 mph 23.0 mph 0.27 in Rain Rain
9:37 AM 73.4 °F 73.4 °F 100% 29.71 in 1.2 mi SSW 15.0 mph 20.7 mph 0.28 in Rain Light Rain
9:40 AM 73.4 °F 73.4 °F 100% 29.71 in 3.0 mi SW 10.4 mph 20.7 mph 0.29 in Rain Light Rain
9:45 AM 73.4 °F 73.4 °F 100% 29.71 in 1.8 mi South 18.4 mph 24.2 mph 0.32 in Rain Rain
9:54 AM 73.4 °F 73.4 °F 100% 29.71 in 2.5 mi SSW 9.2 mph - 0.34 in Rain Light Rain
9:58 AM 73.0 °F 73.0 °F 100% 29.71 in 2.5 mi Variable 4.6 mph 17.3 mph 0.37 in Rain Heavy Rain
10:05 AM 73.4 °F 73.4 °F 100% 29.71 in 1.8 mi WSW 11.5 mph 16.1 mph 0.02 in Rain Light Rain
10:09 AM 73.4 °F 73.4 °F 100% 29.71 in 4.0 mi SW 6.9 mph 16.1 mph 0.02 in Rain Light Rain
10:27 AM 73.4 °F 73.4 °F 100% 29.71 in 1.2 mi SW 11.5 mph - 0.15 in Rain Rain
10:29 AM 73.4 °F 73.4 °F 100% 29.71 in 0.8 mi SSW 13.8 mph 19.6 mph 0.25 in Rain Heavy Rain
10:40 AM 73.4 °F 73.4 °F 100% 29.71 in 1.0 mi WSW 5.8 mph 17.3 mph 0.37 in Rain Rain
10:42 AM 73.4 °F 73.4 °F 100% 29.71 in 2.0 mi SW 5.8 mph - 0.37 in Rain Light Rain
10:49 AM 73.4 °F 73.4 °F 100% 29.71 in 7.0 mi SW 5.8 mph - 0.37 in Rain Light Rain
10:58 AM 75.0 °F 73.9 °F 96% 29.72 in 10.0 mi West 4.6 mph - 0.37 in   Overcast
11:58 AM 77.0 °F 72.0 °F 84% 29.70 in 10.0 mi Calm Calm - N/A   Mostly Cloudy
12:58 PM 77.0 °F 73.9 °F 90% 29.70 in 10.0 mi Variable 4.6 mph - N/A   Unknown
1:51 PM 75.2 °F 71.6 °F 89% 29.68 in 10.0 mi NE 3.5 mph - N/A   Overcast
1:58 PM 77.0 °F 73.0 °F 88% 29.68 in 10.0 mi NNE 3.5 mph - N/A   Overcast
2:58 PM 73.9 °F 73.0 °F 97% 29.68 in 10.0 mi North 5.8 mph - 0.01 in Rain Light Rain
3:06 PM 73.4 °F 71.6 °F 94% 29.67 in 10.0 mi North 5.8 mph - 0.00 in Rain Light Rain
3:45 PM 73.4 °F 71.6 °F 94% 29.68 in 10.0 mi North 12.7 mph 19.6 mph 0.00 in   Overcast
3:58 PM 73.9 °F 72.0 °F 93% 29.68 in 10.0 mi North 11.5 mph - 0.00 in   Overcast
4:58 PM 72.0 °F 70.0 °F 93% 29.69 in 10.0 mi North 13.8 mph 21.9 mph N/A   Overcast
5:36 PM 69.8 °F 69.8 °F 100% 29.70 in 5.0 mi North 15.0 mph 24.2 mph 0.00 in Rain Light Rain
5:58 PM 69.1 °F 69.1 °F 100% 29.71 in 7.0 mi North 15.0 mph 26.5 mph 0.00 in   Overcast
6:58 PM 69.1 °F 68.0 °F 96% 29.73 in 10.0 mi North 13.8 mph - N/A   Overcast
7:54 PM 69.8 °F 66.2 °F 88% 29.75 in 10.0 mi North 11.5 mph - N/A   Overcast
7:58 PM 69.1 °F 66.9 °F 93% 29.75 in 10.0 mi North 15.0 mph 20.7 mph N/A   Overcast
8:58 PM 68.0 °F 64.9 °F 90% 29.78 in 10.0 mi North 17.3 mph 23.0 mph N/A   Overcast
9:58 PM 68.0 °F 62.1 °F 81% 29.80 in 10.0 mi NNE 16.1 mph - N/A   Overcast
10:34 PM 68.0 °F 62.6 °F 83% 29.81 in 10.0 mi NNE 15.0 mph 23.0 mph N/A   Overcast
10:58 PM 68.0 °F 62.1 °F 81% 29.82 in 10.0 mi NNE 13.8 mph 24.2 mph N/A   Overcast
11:58 PM 68.0 °F 63.0 °F 84% 29.83 in 9.0 mi North 12.7 mph 24.2 mph N/A   Overcast